GFSNIL_prec_cloud_003.txt.gz
Cloud_Cover
100 99 100 100 100 100 100 100 100 100 100 100 100 100 87 68 75 16 100 100 100 99
87 100 100 73 100 100 99 97 84 92 100 100 100 100 100 55 5 91 44 99 100 100
100 100 100 100 100 100 100 100 100 97 100 100 100 100 100 80 17 14 71 45 99 97
100 100 100 100 100 100 100 92 74 82 97 93 90 93 94 100 100 80 5 5 5 5
100 100 100 100 100 100 96 92 99 83 72 97 81 8 6 6 5 5 5 5 5 5
100 100 100 100 100 100 100 74 65 45 21 5 4 4 5 5 5 13 5 5 62 67
100 100 100 100 100 100 100 59 22 5 5 5 3 5 5 5 38 71 100 100 100 92
100 100 100 100 100 100 100 89 23 5 5 1 5 5 5 12 82 97 100 100 100 100
100 100 100 100 100 100 49 5 5 5 4 5 5 5 5 5 96 100 100 100 100 100
100 100 100 100 100 100 29 5 4 5 5 5 63 36 72 5 92 100 100 100 100 100
100 100 100 100 100 32 5 1 5 5 21 80 97 72 11 78 100 100 100 100 100 100
100 100 100 100 56 5 0 2 5 17 92 99 82 86 9 78 100 100 100 100 100 100
100 100 100 75 6 0 5 5 8 94 97 100 90 52 85 100 100 100 100 100 100 100
100 99 65 3 0 0 5 5 46 84 87 90 29 77 98 100 100 100 100 100 100 100

GFSNIL_prec_cloud_006.txt.gz
Cloud_Cover
100 100 100 100 100 100 100 100 100 100 100 100 100 100 100 100 100 99 100 100 100 100
100 100 100 100 100 100 100 100 100 100 100 100 100 100 100 100 100 100 100 100 100 100
100 100 100 100 100 100 100 100 100 100 100 100 100 100 100 90 59 67 100 100 100 100
100 100 100 100 99 100 100 100 100 100 100 100 100 100 90 79 42 24 50 82 94 100
100 100 100 100 100 100 100 100 100 100 100 100 100 100 47 29 38 5 5 5 5 5
100 100 100 87 95 100 100 100 100 100 100 100 100 100 92 15 5 5 3 3 2 5
100 100 100 89 89 100 100 100 100 100 100 100 100 54 10 3 5 6 5 10 5 32
93 42 98 100 98 100 100 100 100 100 100 100 16 5 4 5 5 5 5 5 5 5
100 100 100 100 100 100 100 100 100 100 59 5 2 2 5 5 5 5 5 16 36 5
100 100 100 100 100 100 100 100 100 41 3 0 2 5 5 6 11 53 6 6 62 90
100 100 100 100 100 100 100 100 12 2 0 3 5 5 5 5 19 14 21 18 59 86
100 100 100 100 100 100 95 6 0 2 0 5 5 5 5 18 81 100 87 56 63 79
100 100 100 100 100 76 4 0 0 0 31 5 14 5 5 94 100 100 100 99 100 100
100 100 100 100 40 5 1 0 5 92 16 6 99 96 94 100 100 100 100 100 100 100

GFSNIL_prec_cloud_009.txt.gz
Cloud_Cover
5 5 45 100 100 100 100 100 100 100 100 100 100 100 100 100 100 100 100 63 49 34
74 99 94 98 100 100 100 100 100 100 100 100 100 100 100 100 100 100 100 100 100 100
100 100 100 100 99 100 100 100 100 100 100 100 100 100 100 100 100 100 100 100 100 100
100 100 100 100 100 100 100 100 100 100 100 100 100 100 100 100 100 99 83 63 43 36
100 100 100 100 100 100 100 100 100 100 100 100 100 100 100 100 93 47 99 100 100 100
100 100 100 100 100 100 100 100 100 100 100 100 100 100 100 100 100 100 100 100 44 40
100 100 99 98 57 93 98 92 99 100 100 100 100 100 100 100 100 70 5 5 29 17
54 9 7 69 82 98 98 72 95 94 79 91 100 100 100 42 5 5 5 5 2 4
100 95 100 100 100 100 100 84 88 94 100 100 100 82 5 5 5 5 5 5 5 5
100 100 100 100 100 100 100 100 100 100 100 90 1 3 5 5 3 5 5 5 5 5
100 100 100 100 100 100 100 100 100 100 20 0 5 3 3 3 5 22 5 9 5 22
74 100 100 100 100 100 100 100 100 9 0 5 5 5 5 46 99 74 59 77 65 76
83 91 100 100 100 86 82 88 5 1 5 15 16 5 5 61 100 88 54 100 100 100
99 99 100 99 30 42 59 5 5 5 5 5 5 5 44 100 100 100 100 100 100 92

GFSNIL_prec_cloud_012.txt.gz
Cloud_Cover
6 5 5 5 9 5 15 93 75 100 100 100 100 100 100 98 100 100 100 100 100 100
56 100 100 98 69 86 94 100 100 100 100 100 100 100 100 100 100 100 100 100 100 100
16 80 72 15 41 48 97 100 100 100 100 100 100 100 100 100 100 100 100 100 100 100
25 6 5 5 40 31 92 100 100 100 100 100 100 100 100 100 100 100 100 100 100 100
5 5 5 5 82 93 89 95 100 100 100 100 100 100 100 100 100 100 100 100 100 96
5 16 7 66 94 100 100 100 100 100 100 100 100 100 100 100 100 100 100 100 100 100
5 88 49 71 86 96 92 100 100 100 100 100 100 100 100 100 100 100 100 92 54 20
88 99 100 100 90 97 98 100 98 98 78 40 48 98 100 100 99 37 5 5 2 3
100 100 100 100 100 100 100 100 100 100 100 100 100 100 57 7 5 5 5 4 5 5
100 100 100 100 100 100 100 100 100 100 100 100 100 94 5 4 3 5 5 5 5 6
5 85 100 100 100 100 100 100 100 100 100 98 39 3 5 5 5 5 5 6 29 89
94 82 100 100 100 100 100 100 100 98 45 6 5 5 5 5 5 5 58 18 9 48
97 97 74 68 90 100 100 86 53 5 5 5 5 5 5 19 99 93 62 84 77 82
100 100 100 100 100 100 62 38 5 5 5 5 5 5 5 86 100 100 100 100 100 78

GFSNIL_prec_cloud_018.txt.gz
Cloud_Cover
5 16 55 69 26 5 5 5 28 0 0 1 2 5 35 94 100 100 100 100 100 100
86 100 100 100 80 49 5 19 14 12 5 5 24 60 100 100 100 100 100 100 100 100
75 92 100 100 71 96 100 99 100 24 27 37 88 98 100 100 100 100 100 100 100 100
14 5 5 5 5 7 51 80 17 77 100 75 100 74 67 100 100 100 100 100 100 100
100 82 5 65 100 100 96 84 100 99 100 100 100 100 100 100 100 100 100 100 100 100
24 36 73 59 99 99 75 89 100 100 100 100 100 100 100 100 100 100 100 100 100 100
60 96 100 100 100 100 100 100 100 100 100 100 100 100 100 100 100 100 100 100 100 100
98 96 100 100 84 100 100 100 98 100 100 100 100 100 100 96 60 29 45 98 86 42
50 93 5 62 100 100 100 100 100 100 100 100 100 100 100 100 100 100 100 100 100 12
90 100 100 95 94 63 88 100 100 100 100 100 100 100 100 100 100 77 100 97 10 5
100 100 99 97 99 100 100 100 95 100 100 100 100 100 100 100 100 100 100 12 5 18
71 82 100 100 100 100 100 100 100 100 100 100 100 78 64 50 100 100 88 14 91 94
37 30 31 41 64 81 86 76 96 82 51 36 25 26 39 88 92 88 86 100 100 88
88 99 87 76 32 10 44 31 5 8 26 7 5 6 5 16 92 96 100 100 99 92

GFSNIL_prec_cloud_021.txt.gz
Cloud_Cover
79 100 100 100 100 5 5 5 5 5 48 64 13 7 36 98 100 100 100 100 100 100
61 19 28 5 99 99 39 5 21 93 100 100 100 100 100 98 100 100 100 100 100 100
5 6 60 81 82 53 71 30 52 84 77 87 98 98 100 99 88 100 100 100 100 100
15 9 5 25 18 100 87 94 82 99 92 94 100 100 100 96 100 100 100 100 100 100
96 74 5 68 100 100 92 100 96 99 100 100 100 100 100 100 100 100 100 100 100 100
98 36 28 21 39 100 97 100 100 100 100 100 100 100 100 100 100 100 100 100 100 100
41 38 51 100 100 91 74 100 100 93 98 100 100 98 96 85 81 98 100 100 100 100
99 77 47 46 81 96 100 27 82 100 96 99 100 100 100 100 100 99 100 100 100 50
100 100 100 100 66 81 94 75 34 84 61 99 100 100 100 100 60 53 68 100 100 100
34 56 50 46 87 61 23 5 5 27 38 46 48 5 13 47 71 84 88 54 39 88
5 31 5 5 5 5 5 5 5 40 19 26 46 35 46 54 68 99 97 83 99 98
60 100 96 99 99 32 5 5 19 50 52 33 12 3 5 40 100 100 92 99 100 100
93 100 100 60 2 5 5 5 5 5 5 5 5 5 5 62 99 100 100 100 100 98
26 38 5 3 5 5 5 5 5 5 5 5 5 5 5 71 100 100 100 100 100 100

GFSNIL_prec_cloud_024.txt.gz
Cloud_Cover
9 10 12 65 98 100 100 100 97 74 64 92 99 100 100 100 100 100 100 100 100 100
29 97 99 100 100 100 46 65 46 100 100 100 100 100 99 100 100 98 100 100 99 100
56 33 96 100 98 59 73 73 100 100 100 100 100 100 100 100 100 100 100 94 98 100
62 83 100 98 91 92 99 100 100 100 100 100 100 96 100 100 100 100 100 100 100 100
100 100 73 99 58 46 100 100 98 100 100 100 90 100 100 100 100 100 100 100 100 100
100 90 100 99 98 97 90 92 80 81 100 88 62 96 94 98 94 97 100 100 100 100
100 100 100 100 100 100 100 100 100 96 83 74 48 75 99 100 100 98 92 91 86 98
100 94 100 100 100 100 100 100 90 54 7 5 5 5 19 56 81 95 97 100 100 88
54 56 66 98 93 44 5 5 5 5 5 5 5 5 5 5 25 75 53 23 67 99
94 83 70 29 70 24 37 5 5 5 5 5 32 5 5 5 5 5 62 100 100 88
99 91 95 14 86 47 5 5 5 5 9 31 66 5 5 5 9 95 100 100 100 100
100 74 13 65 5 5 5 5 5 7 78 96 96 79 6 20 100 100 100 99 100 100
9 61 20 5 5 5 5 9 89 88 95 99 94 99 100 92 100 100 100 100 100 100
73 20 5 5 5 5 68 98 98 98 100 98 100 94 96 98 100 100 100 100 100 100

GFSNIL_prec_cloud_030.txt.gz
Cloud_Cover
100 83 58 55 97 100 100 100 100 100 94 16 7 100 81 100 100 100 100 41 100 95
100 100 100 100 100 100 60 5 5 5 5 5 5 36 99 96 92 92 97 100 100 100
100 100 100 91 46 5 5 5 5 7 6 21 7 5 5 22 78 48 6 69 32 76
6 9 9 16 38 5 5 1 12 91 22 48 100 86 75 62 23 91 34 95 88 89
25 43 57 11 68 48 24 97 100 97 100 99 100 100 98 11 86 30 66 100 90 94
27 100 100 81 6 3 5 65 59 79 84 96 65 87 76 17 98 79 6 3 0 4
48 59 9 5 5 5 5 5 14 57 80 78 5 5 5 29 5 5 3 0 0 0
5 5 3 21 23 44 5 23 60 46 31 5 5 5 75 6 5 5 0 0 0 1
100 59 5 21 41 9 78 75 100 6 5 45 100 55 5 1 5 4 5 0 1 5
55 49 19 5 58 92 75 100 9 5 6 64 39 5 5 5 5 5 5 12 64 10
26 5 3 39 100 99 85 23 5 5 84 59 5 2 5 5 5 5 5 59 7 14
100 52 5 6 100 100 88 47 40 98 100 12 3 3 65 68 10 5 5 5 22 100
100 100 100 16 77 100 100 70 97 100 100 6 5 67 100 100 99 91 72 6 15 88
87 100 100 13 85 100 100 100 100 100 28 5 44 99 99 64 81 100 98 48 76 81

GFSNIL_prec_cloud_033.txt.gz
Cloud_Cover
6 23 46 85 100 100 100 55 14 12 5 76 21 5 5 5 4 5 5 9 35 100
100 100 100 100 100 86 5 34 75 16 74 5 2 5 5 5 5 5 5 5 5 5
100 100 100 100 52 79 82 77 94 56 5 19 51 78 35 5 15 5 6 5 5 16
79 100 100 96 63 5 1 3 5 12 94 100 99 100 100 100 94 98 64 81 85 13
96 76 64 63 5 5 5 5 5 48 99 100 100 100 100 99 99 92 44 28 90 38
4 5 1 0 5 3 0 5 5 52 74 29 82 96 95 67 5 7 63 99 100 86
0 0 0 5 5 5 1 5 10 98 92 29 5 5 3 5 56 37 22 4 3 1
3 1 1 5 5 4 0 5 5 58 58 88 7 5 5 5 5 5 5 5 4 1
95 100 100 64 64 24 12 60 5 5 88 5 0 5 5 5 5 5 5 5 5 5
98 30 58 100 100 100 100 98 14 37 95 5 26 5 5 5 5 5 5 5 5 0
20 33 98 100 96 100 100 100 100 31 28 94 100 5 5 5 5 5 5 5 5 5
5 94 97 100 100 99 99 99 100 98 68 79 10 5 5 5 7 26 5 5 5 12
0 40 100 100 100 100 98 98 100 71 96 6 5 5 7 11 28 43 16 8 90 100
3 5 100 100 100 97 97 49 73 99 11 5 5 5 42 91 95 100 95 100 80 94

GFSNIL_prec_cloud_036.txt.gz
Cloud_Cover
92 98 59 79 99 100 100 100 100 92 63 10 5 5 7 6 6 5 5 5 7 5
34 86 100 100 100 100 92 20 5 2 5 5 11 100 39 5 6 32 5 5 13 58
62 62 66 71 47 4 0 1 0 5 5 5 82 99 75 52 90 92 100 100 100 97
36 7 5 1 0 0 0 4 0 0 5 5 5 5 10 14 30 67 77 55 68 100
5 1 0 0 0 0 1 5 5 0 5 4 3 5 5 5 5 5 5 6 90 100
4 5 0 4 1 0 4 5 44 3 9 4 39 5 5 5 5 5 10 100 100 79
5 5 5 10 6 47 80 98 100 100 98 74 95 73 18 4 5 5 5 5 5 5
5 40 61 7 55 81 100 100 100 100 100 100 96 58 2 5 5 5 11 5 5 1
74 27 6 6 91 31 82 100 100 100 100 100 90 0 5 5 6 5 5 5 4 4
0 1 3 5 5 30 100 100 100 100 100 95 5 5 5 5 5 5 5 5 5 5
0 4 78 46 56 27 100 100 100 100 99 20 94 5 5 5 5 5 5 5 5 5
5 5 2 56 85 16 100 100 100 97 82 83 16 5 5 5 11 5 5 5 5 22
5 3 15 98 45 45 98 100 100 71 99 5 5 5 6 37 89 69 39 62 16 12
5 5 92 99 83 93 100 100 99 71 5 5 5 4 5 28 5 20 99 54 31 23

GFSNIL_prec_cloud_039.txt.gz
Cloud_Cover
100 99 99 100 100 100 38 5 5 5 5 2 2 4 6 26 5 5 6 19 84 94
100 99 87 21 5 4 5 5 5 2 0 5 5 5 5 5 5 5 16 5 90 100
23 5 5 5 1 5 1 0 0 0 0 0 5 5 5 5 5 4 3 5 6 10
11 5 5 1 0 0 0 3 5 5 13 5 5 3 5 6 5 5 5 2 5 8
5 4 0 5 5 3 5 5 83 99 33 100 100 100 75 89 20 47 5 19 91 76
4 5 5 5 5 23 5 88 5 5 12 84 74 93 100 100 100 98 5 4 5 5
9 16 5 10 8 5 4 36 6 43 100 98 100 100 100 100 98 5 5 5 5 5
5 4 1 0 17 9 23 5 5 93 100 100 100 100 95 30 7 5 5 5 5 5
5 0 0 0 0 0 0 40 73 100 100 100 100 85 79 51 5 5 5 5 5 5
0 0 0 0 2 2 39 76 44 97 100 100 76 36 21 5 5 5 10 24 5 5
3 2 0 5 18 29 84 80 71 26 62 93 100 81 5 5 5 5 5 5 5 5
5 5 5 34 92 100 91 87 56 94 100 97 38 5 8 6 5 5 5 5 5 83
5 5 5 7 22 55 5 86 100 98 74 6 5 5 5 63 31 72 34 7 5 5
19 23 5 8 5 34 84 100 100 87 99 5 5 5 5 5 5 5 32 63 79 6

GFSNIL_prec_cloud_042.txt.gz
Cloud_Cover
90 76 60 70 73 9 5 18 92 93 12 5 3 0 2 5 5 5 8 5 12 12
73 99 48 5 45 98 67 9 5 5 3 5 6 7 5 5 20 11 5 13 100 54
5 7 38 84 62 22 5 2 0 5 45 67 41 8 35 99 90 93 83 29 71 5
73 79 74 43 5 5 1 1 5 20 82 5 14 81 100 85 82 96 58 99 77 52
63 22 5 5 0 1 0 4 5 22 83 5 100 100 100 100 100 99 100 100 32 3
5 5 3 0 0 0 3 5 2 0 1 5 100 99 97 100 100 100 51 5 5 5
0 0 5 5 5 5 0 0 2 5 13 94 92 100 100 100 100 12 5 5 5 5
5 5 5 5 5 4 0 4 5 79 88 100 100 99 100 100 5 5 5 5 5 5
5 5 48 18 5 0 3 33 83 100 67 7 88 87 100 82 5 5 7 29 5 5
95 96 24 4 0 14 61 66 68 20 5 13 44 5 70 6 5 5 5 5 5 5
100 49 5 5 4 5 48 95 11 72 5 5 8 83 6 5 5 5 5 5 5 48
80 5 5 5 5 42 49 99 89 5 5 14 20 5 5 5 5 5 5 5 5 80
5 43 36 5 27 62 7 93 72 81 86 30 78 5 5 6 5 33 11 5 5 6
5 100 100 59 74 97 91 97 100 95 74 84 5 5 5 24 60 23 83 36 77 54

GFSNIL_prec_cloud_045.txt.gz
Cloud_Cover
5 26 5 5 5 5 1 1 5 5 4 5 5 65 5 4 5 5 9 7 5 5
38 5 5 5 5 5 5 5 6 5 5 5 6 5 0 4 3 30 19 15 95 9
5 5 5 15 27 42 74 33 55 5 4 5 5 5 4 38 5 84 94 60 5 8
29 92 72 42 17 14 5 5 5 2 5 4 5 5 5 63 99 100 96 70 77 24
49 5 5 43 5 5 0 3 5 0 5 4 82 50 79 100 49 74 100 77 5 5
5 5 5 5 5 5 5 5 5 9 34 54 100 100 98 100 100 91 81 53 5 5
5 5 5 5 5 5 5 13 25 6 31 86 100 100 100 100 97 98 63 23 5 5
5 8 59 98 42 15 32 34 39 91 100 97 28 79 93 98 89 32 5 15 5 8
41 93 99 100 100 73 5 21 47 47 22 5 42 13 5 5 5 5 5 4 0 0
100 100 100 79 34 5 11 7 6 9 32 9 5 5 5 5 5 5 5 1 0 3
100 100 57 5 5 5 52 99 100 86 5 5 5 5 5 5 5 5 5 5 5 41
100 70 18 5 5 11 57 97 100 100 98 44 26 5 5 5 5 5 5 32 78 99
59 25 28 22 5 7 5 5 5 65 82 66 14 5 5 5 95 95 99 99 96 100
56 98 98 43 5 22 65 88 98 99 78 7 5 5 5 5 91 97 100 99 96 100

GFSNIL_prec_cloud_048.txt.gz
Cloud_Cover
5 33 75 85 36 5 5 17 28 5 5 5 6 83 93 54 49 84 83 70 100 99
100 74 26 5 20 53 19 5 5 6 87 5 23 48 65 66 75 99 59 100 100 82
99 14 5 5 6 5 5 5 6 21 5 5 5 55 55 68 76 93 82 83 92 97
94 13 57 54 6 5 5 5 40 4 5 5 5 25 14 51 76 66 99 96 87 99
68 79 53 5 5 5 5 5 5 5 5 5 5 28 17 57 44 79 100 100 100 100
5 5 5 5 26 80 81 96 41 5 5 56 71 76 98 100 95 100 100 100 100 100
5 49 82 98 50 60 96 53 5 5 35 97 99 83 98 77 96 100 100 99 100 74
62 98 95 39 74 100 36 6 14 35 100 78 85 98 100 100 94 100 98 64 28 5
89 84 59 99 100 91 21 81 100 81 98 100 100 5 5 5 84 80 6 5 5 5
100 100 100 100 77 70 64 96 94 100 100 100 100 5 5 5 8 24 5 5 5 5
100 100 100 91 64 55 76 100 100 100 100 100 99 5 5 5 17 50 76 79 82 81
100 100 100 65 26 64 97 100 100 98 100 100 100 8 5 5 67 98 92 100 100 97
100 100 97 98 69 86 99 100 100 94 97 87 98 47 5 5 98 100 97 100 100 100
100 100 91 46 76 89 90 97 100 96 98 94 94 68 5 5 57 100 99 99 98 100

GFSNIL_prec_cloud_051.txt.gz
Cloud_Cover
89 75 29 86 100 63 13 4 5 5 5 5 5 9 60 5 95 70 58 52 84 89
97 89 97 97 100 88 5 5 8 5 5 5 5 5 11 54 81 77 94 90 40 96
100 94 94 76 36 5 5 5 8 5 5 5 5 5 5 91 99 90 89 97 56 99
95 96 17 17 14 5 5 5 5 5 5 5 5 5 76 100 100 99 94 52 89 95
98 49 6 66 8 5 5 5 5 5 5 5 5 5 53 97 94 46 99 100 100 87
28 19 54 5 5 19 44 8 5 6 20 5 8 21 14 33 62 76 78 93 96 98
39 16 62 23 86 90 69 62 41 27 24 5 99 57 78 75 97 100 96 94 100 100
60 89 57 79 83 91 99 60 8 49 58 100 73 99 91 76 91 90 99 100 94 54
68 73 82 88 100 100 41 6 66 84 98 100 100 61 65 12 20 89 100 99 51 60
99 100 100 100 99 63 53 28 69 94 85 56 97 27 96 93 65 34 84 100 98 91
100 100 100 100 98 50 22 50 93 86 99 39 100 83 100 50 5 45 100 100 100 100
100 100 100 100 73 42 36 99 100 70 91 93 100 71 23 6 14 90 94 100 100 98
100 100 100 97 100 100 100 100 90 19 100 100 94 72 6 6 24 98 100 98 99 92
100 100 100 98 100 100 100 62 5 96 82 82 98 97 48 92 100 100 100 99 98 96

GFSNIL_prec_cloud_054.txt.gz
Cloud_Cover
11 28 77 100 62 88 100 46 8 41 7 5 5 5 5 6 40 9 4 27 100 98
40 100 100 86 100 95 100 95 5 5 5 5 5 5 5 5 10 86 8 31 100 100
100 98 100 100 86 84 48 5 5 5 5 5 5 5 5 5 5 12 5 85 88 62
100 100 95 74 38 60 6 5 5 5 5 5 5 5 5 31 89 22 5 17 10 12
100 98 7 86 45 5 5 5 5 5 5 5 5 6 5 5 5 5 5 5 57 88
86 7 97 38 7 5 5 5 5 5 19 25 62 73 20 7 25 35 40 86 59 97
40 72 53 79 75 62 50 55 68 93 75 85 40 98 67 88 50 5 5 69 100 100
43 66 82 78 87 90 90 96 95 100 88 78 68 30 83 70 72 6 76 100 100 100
86 100 88 100 100 100 82 88 70 99 98 100 98 100 90 100 98 56 96 100 89 5
100 100 100 100 100 100 100 100 100 100 92 100 100 100 75 100 99 85 98 72 5 5
100 100 100 100 100 100 100 100 99 100 100 100 94 18 66 100 80 91 62 5 5 14
100 100 100 100 100 100 100 100 100 100 100 85 55 24 79 22 47 41 32 77 61 70
100 100 100 100 100 100 100 100 100 100 55 5 37 66 5 85 6 19 96 100 98 99
100 100 100 100 100 100 94 100 84 36 18 5 43 87 86 53 26 5 87 100 100 98

GFSNIL_prec_cloud_057.txt.gz
Cloud_Cover
5 17 98 100 100 91 100 81 81 7 5 5 5 5 5 5 5 4 1 5 9 47
92 90 100 96 100 100 100 99 5 33 5 5 5 5 5 5 5 5 5 5 5 68
90 100 100 100 100 100 38 6 97 6 24 12 6 69 5 5 5 5 5 7 5 5
100 100 100 96 100 92 5 25 41 69 55 64 92 90 7 5 5 6 26 90 97 6
100 100 98 99 99 6 5 5 5 46 69 87 93 94 45 31 62 93 86 60 31 81
100 95 90 100 38 70 84 62 82 65 83 100 54 11 92 100 100 100 100 80 47 5
88 100 100 91 89 88 76 100 100 100 100 100 55 92 100 100 100 100 100 81 5 45
100 89 66 46 99 100 100 100 100 100 100 100 100 100 100 100 100 100 83 88 42 13
100 99 100 100 100 100 100 100 98 93 100 100 100 100 100 100 77 74 100 100 99 5
97 100 100 100 100 100 100 97 95 93 100 100 100 100 100 99 26 47 100 92 55 18
100 100 100 100 100 100 100 100 100 100 100 100 100 100 48 41 15 97 25 6 5 5
100 100 100 100 100 100 100 100 100 100 100 100 90 13 5 9 100 34 66 7 5 5
100 100 100 100 100 100 100 100 100 100 96 5 14 43 8 90 98 97 78 5 5 6
100 100 100 100 100 100 100 100 77 37 26 12 5 5 5 67 100 40 69 5 5 5

GFSNIL_prec_cloud_060.txt.gz
Cloud_Cover
0 5 41 18 100 100 98 100 64 100 99 86 5 5 5 67 5 5 5 5 5 5
9 95 92 93 93 100 100 100 100 98 100 6 5 5 56 61 5 5 5 5 5 5
100 95 99 83 21 77 95 98 94 99 30 6 10 78 97 12 15 5 6 13 9 5
76 21 100 95 100 33 77 88 100 61 54 76 98 100 78 76 46 55 69 50 66 93
100 100 100 100 78 100 80 86 100 5 8 86 35 42 33 65 100 100 99 100 100 100
100 100 100 86 89 94 9 49 5 38 69 60 73 88 94 95 77 91 100 100 100 100
99 100 62 100 82 24 24 13 90 61 84 100 99 95 100 100 100 100 100 100 100 100
84 70 89 92 97 35 98 80 92 94 98 100 100 100 100 100 100 96 100 97 96 100
100 12 5 5 95 75 99 94 86 100 100 100 100 100 100 100 100 100 5 48 93 100
56 5 30 100 90 99 100 96 100 100 89 100 100 100 100 100 36 5 5 68 68 70
67 81 98 96 99 100 100 100 100 100 100 100 100 83 24 5 5 24 50 88 66 92
99 98 98 93 97 100 100 100 100 100 100 100 11 5 5 9 18 80 98 81 100 94
100 100 100 95 94 95 100 84 66 100 34 5 5 54 11 32 5 18 87 100 72 35
83 90 100 100 99 76 62 38 25 29 18 6 91 87 5 5 12 8 95 37 11 93

GFSNIL_prec_cloud_063.txt.gz
Cloud_Cover
5 4 5 5 8 81 44 100 99 100 100 72 29 89 62 100 19 5 38 75 56 41
6 84 100 100 100 59 100 100 100 100 100 87 79 88 52 71 85 42 5 8 7 27
100 97 96 100 100 100 79 100 100 100 100 93 12 85 88 61 62 69 78 48 29 77
100 35 46 21 98 100 100 100 100 100 90 8 92 90 93 98 49 61 93 79 67 94
94 100 55 95 100 100 100 46 100 74 48 6 85 100 89 80 48 89 99 100 100 100
76 81 100 100 100 51 22 46 28 93 95 51 92 55 82 86 87 83 98 100 100 100
100 100 100 84 84 75 46 100 77 88 89 91 86 98 98 97 99 100 100 100 54 5
98 100 100 33 100 100 96 94 100 76 97 96 100 100 100 100 100 84 10 5 5 5
13 100 100 100 100 100 100 73 69 78 99 100 100 100 100 72 18 5 5 5 5 70
60 100 100 100 100 99 82 99 100 100 98 99 99 79 54 23 5 5 5 5 20 37
100 100 100 100 98 97 99 100 100 100 100 100 93 21 5 4 5 5 5 5 100 100
100 100 100 100 100 100 100 100 100 100 100 78 13 22 5 6 20 14 6 9 96 100
100 100 100 100 100 100 80 83 100 50 6 71 71 5 5 20 86 100 71 12 77 100
100 100 100 100 100 100 88 46 16 5 42 61 4 5 5 19 96 100 71 20 6 20

GFSNIL_prec_cloud_066.txt.gz
Cloud_Cover
100 46 15 5 5 2 5 9 100 100 100 100 100 100 100 76 8 5 5 5 9 89
39 5 0 5 37 98 5 76 76 100 99 100 100 99 94 29 64 5 5 6 11 79
1 0 3 40 5 17 92 100 100 91 100 90 94 22 98 100 96 55 38 55 64 84
0 59 100 95 95 73 64 100 100 97 16 100 100 86 83 31 63 72 98 75 65 92
70 45 39 98 100 100 100 100 14 30 99 38 66 63 84 92 100 71 84 100 97 100
88 98 99 66 100 100 91 11 51 100 90 83 85 88 89 80 84 100 93 100 70 5
72 82 72 89 100 89 76 94 88 100 100 100 100 97 78 95 90 100 100 92 5 5
100 99 95 100 94 97 100 100 100 99 95 94 100 72 71 71 96 95 21 5 5 5
100 100 100 100 77 100 100 98 90 78 97 100 99 63 61 76 70 5 5 5 5 5
100 100 99 92 86 98 99 68 80 93 66 71 100 100 73 7 5 5 6 5 5 5
100 98 100 100 100 85 79 100 100 96 84 100 87 40 6 7 5 30 6 5 5 5
86 100 93 99 87 99 99 97 48 51 61 5 96 16 5 5 55 12 7 5 5 5
100 94 98 100 100 99 64 87 75 47 5 32 13 5 5 53 45 94 100 100 11 5
100 99 100 100 83 6 43 51 40 24 29 21 6 5 43 47 7 11 100 100 66 5

GFSNIL_prec_cloud_069.txt.gz
Cloud_Cover
100 100 100 100 100 100 26 5 23 76 16 100 100 99 83 47 6 8 5 5 5 5
100 100 100 100 100 8 41 81 72 66 100 100 100 51 5 24 5 5 6 29 5 5
100 100 97 91 12 44 97 91 99 100 100 100 95 6 5 5 5 40 42 5 5 5
100 75 84 100 61 95 91 100 100 100 100 76 18 86 16 5 39 61 6 5 5 5
90 100 100 94 100 100 100 100 100 100 100 26 59 5 57 39 5 5 5 5 5 5
100 100 100 99 100 100 100 97 100 86 62 27 52 58 6 6 5 5 5 5 5 5
100 100 99 100 100 100 100 100 100 72 90 82 72 12 5 5 5 5 5 5 5 5
100 97 100 100 100 100 100 62 66 62 81 71 51 48 5 5 5 5 11 21 5 5
100 100 100 100 100 100 68 58 100 64 92 100 94 57 5 6 15 39 19 5 5 5
100 100 97 100 100 9 94 93 81 100 75 49 34 5 6 28 15 39 28 6 5 5
100 100 100 96 50 100 98 72 71 34 5 9 5 5 24 5 5 38 5 5 5 5
99 100 100 100 100 26 5 19 5 29 39 5 13 24 11 5 5 5 5 5 6 5
100 92 66 71 30 27 72 59 30 10 5 30 58 24 6 5 5 8 7 5 5 5
63 94 100 56 62 48 6 35 5 24 58 37 5 41 55 6 46 100 91 87 5 5

GFSNIL_prec_cloud_072.txt.gz
Cloud_Cover
100 100 100 100 100 100 100 100 100 100 99 8 29 100 100 100 100 99 7 5 5 5
100 100 100 100 100 100 100 100 100 95 12 74 95 100 100 93 60 88 7 5 5 5
100 100 100 100 100 100 100 90 73 99 100 100 100 100 73 8 5 5 5 5 5 5
100 100 100 100 100 100 94 98 100 100 100 100 100 73 24 9 5 5 5 5 5 5
100 100 100 100 100 100 100 100 100 100 100 100 99 69 69 78 5 5 5 5 5 5
100 100 100 100 100 100 100 100 100 100 100 100 100 90 66 79 64 27 5 5 14 5
100 100 100 100 100 100 100 100 100 100 100 100 100 53 56 95 69 23 52 73 5 5
100 100 100 100 100 100 100 100 100 100 99 78 73 48 9 7 61 63 65 5 5 5
100 100 100 100 100 100 100 100 92 100 100 100 100 100 79 100 78 41 5 5 5 5
100 100 100 100 98 100 100 98 99 100 100 100 100 66 66 44 69 31 5 5 6 5
66 98 100 100 52 100 100 100 100 100 100 100 51 11 80 87 41 5 8 17 5 5
100 100 79 64 100 99 100 100 100 100 98 6 26 100 92 8 5 5 35 13 12 6
66 70 100 90 100 100 100 100 100 96 7 46 72 20 5 6 8 23 26 13 5 63
100 95 100 91 94 100 100 96 26 13 32 7 7 14 58 42 14 5 5 5 5 5

GFSNIL_prec_cloud_075.txt.gz
Cloud_Cover
100 100 100 100 100 100 100 100 100 100 100 100 100 100 100 100 100 100 100 71 18 5
100 100 100 100 100 100 100 100 100 96 100 100 100 100 100 100 100 100 99 89 44 7
100 100 100 100 100 100 100 100 100 100 100 100 100 100 100 100 99 100 100 79 35 93
100 100 100 100 100 100 100 100 100 100 98 100 100 100 100 100 100 100 100 100 100 100
100 88 100 100 100 100 100 100 100 100 100 100 100 100 100 100 98 98 93 100 98 19
98 100 100 100 100 100 100 100 100 100 100 100 100 100 100 100 100 71 98 84 21 7
100 100 100 100 100 100 100 100 100 100 100 100 100 100 100 100 100 100 90 100 100 100
100 100 100 100 100 100 100 100 100 100 100 100 100 100 99 100 100 100 100 100 100 69
100 100 100 100 100 100 100 100 100 100 100 100 100 100 100 100 100 100 100 100 81 25
100 100 100 100 100 100 100 100 100 100 96 96 100 100 100 100 100 100 100 99 87 8
100 100 95 75 93 84 90 100 96 90 100 100 100 100 100 100 100 100 100 49 6 17
100 100 100 100 100 100 99 100 100 100 100 100 100 100 100 100 93 93 80 61 61 22
100 100 98 95 96 67 100 100 100 100 100 100 100 93 87 100 100 57 78 7 5 5
78 57 76 87 60 86 97 99 100 100 100 100 89 99 100 100 17 5 5 5 13 5

GFSNIL_prec_cloud_081.txt.gz
Cloud_Cover
10 57 62 86 100 100 100 100 97 100 98 100 100 100 100 100 100 100 100 100 100 100
74 82 15 8 37 100 100 100 99 57 99 100 100 99 97 100 100 100 100 100 100 100
32 5 11 62 79 99 100 87 96 98 77 100 100 100 100 100 100 100 100 100 100 100
2 5 96 44 9 12 85 100 100 100 100 100 99 99 73 100 100 100 100 100 100 100
24 4 79 100 100 100 100 100 100 100 74 74 100 100 43 100 100 100 100 100 100 100
31 41 95 100 100 100 100 100 100 100 100 100 100 97 100 100 100 100 100 100 100 100
58 77 100 100 100 100 100 100 97 63 100 100 100 100 100 100 100 100 100 90 98 63
99 100 100 100 100 98 100 93 100 90 100 100 100 100 100 93 100 55 20 31 27 5
100 100 100 100 100 100 100 100 100 100 100 100 100 100 100 100 86 97 98 90 39 5
100 100 100 100 100 100 100 100 100 100 100 100 100 100 96 20 95 97 91 64 5 51
100 100 100 100 100 100 100 100 100 100 100 100 95 42 63 84 87 98 96 95 98 92
100 100 100 100 100 100 100 100 100 100 93 55 86 99 94 96 100 99 100 100 100 100
100 100 100 100 100 100 100 100 100 100 84 99 96 94 98 100 100 100 99 100 100 100
100 100 100 100 100 100 100 100 91 59 81 100 85 100 100 99 100 100 100 100 100 100

GFSNIL_prec_cloud_084.txt.gz
Cloud_Cover
5 5 6 8 5 19 18 42 73 93 88 100 100 97 100 100 100 98 100 100 100 100
7 22 5 3 0 5 62 56 60 54 100 99 100 100 100 100 93 99 96 100 100 100
92 78 7 6 2 5 16 13 97 100 100 100 100 97 100 83 100 81 100 100 100 100
12 60 100 74 6 6 60 100 100 100 100 100 100 48 100 93 100 100 100 100 100 100
4 5 89 90 100 100 100 100 100 100 100 100 84 97 98 100 100 58 94 100 100 100
21 16 40 67 100 100 100 100 100 100 100 100 100 100 100 98 100 100 100 100 100 100
99 77 48 99 100 100 100 100 100 100 100 100 100 100 99 97 100 100 100 100 100 100
100 100 100 100 100 100 100 100 100 100 100 100 100 100 100 100 100 100 100 100 100 68
100 100 100 100 100 100 100 100 100 100 100 100 100 100 100 100 100 100 100 100 96 100
100 100 100 100 100 100 100 100 100 100 100 100 100 100 100 100 100 100 100 80 98 100
100 100 100 100 100 100 100 100 100 100 100 100 100 100 100 100 100 94 89 96 100 100
100 100 100 100 100 100 100 100 100 100 100 100 100 86 100 100 81 96 100 82 97 96
100 100 100 100 100 100 100 100 100 100 100 100 100 100 100 100 100 100 100 99 83 82
100 100 100 100 100 100 100 100 100 100 100 100 100 100 100 100 100 100 100 100 100 100

GFSNIL_prec_cloud_090.txt.gz
Cloud_Cover
100 100 100 100 100 100 100 100 100 100 100 100 100 89 92 92 100 100 100 52 50 43
100 100 100 100 100 100 100 100 100 100 100 100 98 99 58 100 100 100 91 68 47 47
11 50 91 100 100 93 100 67 64 60 38 69 88 100 96 100 100 100 100 99 100 100
5 5 5 5 12 9 5 5 5 43 74 70 100 98 100 100 100 100 100 100 100 100
31 5 17 88 95 5 68 35 95 95 85 100 100 100 100 100 100 100 100 100 100 100
100 100 100 58 46 98 5 100 96 100 100 100 100 100 100 100 100 100 100 100 100 100
29 5 54 98 100 80 100 100 100 100 100 100 100 100 100 100 100 100 100 100 100 100
0 0 0 0 2 66 100 96 100 99 100 100 100 100 100 100 100 100 100 100 100 100
0 0 0 0 5 34 91 100 100 100 100 100 100 100 100 100 100 100 100 100 100 100
16 14 59 66 84 95 100 100 100 100 100 100 100 100 100 100 100 100 100 100 100 100
100 100 100 100 100 100 100 100 100 100 100 100 100 100 100 100 100 100 100 100 100 100
100 100 100 100 100 100 100 100 100 100 100 100 100 100 100 100 100 100 100 100 100 100
100 100 100 100 100 100 100 100 100 100 100 100 100 100 100 100 100 100 100 100 100 100
100 100 100 100 100 100 100 100 100 100 100 100 100 100 100 100 100 100 100 100 100 100

GFSNIL_prec_cloud_093.txt.gz
Cloud_Cover
100 100 100 100 100 100 100 100 100 100 100 100 100 100 100 100 99 100 79 89 83 100
100 100 100 100 100 100 100 100 100 100 100 100 100 98 98 100 100 100 97 61 61 98
99 100 100 100 100 100 100 100 100 100 100 100 100 100 100 100 100 95 100 100 100 100
66 67 89 99 100 100 78 98 68 9 6 44 37 80 95 93 91 100 100 100 98 100
6 100 100 87 7 19 98 98 64 16 14 80 100 100 100 100 100 100 100 100 100 100
45 82 100 95 100 100 100 19 5 7 52 48 100 100 100 100 100 100 100 100 100 100
41 20 77 69 41 100 71 5 5 5 33 82 100 100 100 100 100 100 100 100 99 100
0 0 0 0 0 0 0 37 92 47 93 94 100 98 100 100 100 100 100 100 100 100
0 0 0 0 1 25 34 84 99 100 100 100 100 100 100 100 100 100 100 100 100 100
5 5 5 5 99 100 59 71 79 99 100 100 100 100 100 100 100 100 100 100 100 100
20 56 84 92 80 94 100 100 100 100 100 100 100 100 100 100 100 100 100 100 100 100
98 100 100 100 100 100 100 100 100 100 100 100 100 100 100 100 100 100 100 100 100 100
100 100 100 100 100 100 100 100 100 100 100 100 100 100 100 100 100 100 100 100 100 100
100 100 100 100 100 100 100 100 100 100 100 100 100 100 100 100 100 100 100 100 100 100

GFSNIL_prec_cloud_096.txt.gz
Cloud_Cover
100 100 100 100 100 100 100 100 100 100 100 100 100 100 100 100 100 100 100 100 100 100
100 100 100 100 100 100 100 100 100 100 100 100 100 100 100 100 100 100 100 100 96 81
100 100 100 100 100 100 100 100 100 100 100 100 100 100 100 100 100 96 98 46 100 87
100 100 100 100 100 100 100 100 100 100 100 100 100 100 86 22 90 96 94 100 100 100
31 61 27 92 100 100 99 100 59 99 30 27 7 9 21 86 88 100 100 100 100 100
17 5 36 89 54 75 13 15 20 13 15 5 5 55 7 9 37 94 99 100 100 98
22 5 5 48 30 12 10 50 12 5 5 5 5 5 27 85 87 100 95 92 86 93
0 0 0 4 5 5 49 85 81 33 5 20 46 28 49 61 84 100 100 100 100 100
0 0 0 0 2 0 0 0 0 1 18 19 49 100 100 100 100 100 100 100 100 100
1 5 5 13 39 75 73 86 56 80 100 100 100 100 100 100 100 100 100 100 100 100
6 25 52 89 100 100 100 100 100 100 100 100 100 100 100 100 100 100 100 100 100 100
95 99 98 100 100 100 100 100 100 100 100 100 100 100 100 100 100 100 100 100 100 100
100 100 100 100 100 100 100 100 100 100 100 100 100 100 100 100 100 100 100 100 100 100
100 100 100 100 100 100 100 100 100 100 100 100 100 100 100 100 100 100 100 100 100 100

GFSNIL_prec_cloud_099.txt.gz
Cloud_Cover
100 100 100 100 100 100 100 100 100 100 100 100 100 100 100 100 100 100 100 100 100 100
100 100 100 100 100 100 100 100 100 100 100 100 100 100 100 100 100 100 100 100 100 100
100 100 100 100 100 100 100 100 100 100 100 100 100 100 100 100 100 100 100 100 100 100
100 100 100 100 100 100 100 100 100 100 100 100 100 100 100 100 100 100 100 84 93 83
100 100 100 100 100 100 100 100 100 100 100 100 100 100 100 100 100 100 98 100 8 56
22 90 100 100 100 100 100 100 100 100 100 100 100 100 100 86 29 4 5 41 69 64
0 5 14 35 41 23 62 60 54 59 64 44 32 44 41 73 26 3 5 77 97 89
0 7 18 37 43 46 48 28 35 30 29 58 77 60 30 49 48 89 100 100 100 100
0 1 15 10 15 44 60 85 88 100 96 100 100 100 100 100 100 100 100 100 100 100
3 13 40 70 100 100 100 100 100 100 100 100 100 100 98 100 100 100 100 100 100 100
27 41 82 100 100 100 100 100 100 100 100 100 100 100 100 100 100 100 100 100 100 100
100 100 100 100 100 100 100 100 100 100 100 100 100 100 100 100 100 100 100 100 100 100
100 100 100 100 100 100 100 100 100 100 100 100 100 100 100 100 100 100 100 100 100 100
100 100 100 100 100 100 100 100 100 100 100 100 100 100 100 100 100 100 100 92 89 100

GFSNIL_prec_cloud_102.txt.gz
Cloud_Cover
100 100 100 100 100 100 100 100 100 100 100 100 100 100 100 100 100 100 100 100 100 100
100 100 100 100 100 100 100 100 100 100 100 100 100 100 100 100 100 100 100 100 100 100
100 100 100 100 100 100 100 100 100 100 100 100 100 100 100 100 100 100 100 100 100 100
100 100 100 100 100 100 100 100 100 100 100 100 100 100 100 100 100 100 100 100 100 100
100 100 100 100 100 100 100 100 100 100 100 100 100 100 100 100 100 100 100 100 100 100
40 97 100 100 100 100 100 100 100 100 100 100 100 100 100 100 100 100 100 100 100 100
20 4 1 81 100 100 100 100 100 100 100 100 100 100 100 100 100 100 100 100 100 100
0 0 11 20 32 100 100 100 100 100 100 100 100 100 100 100 100 100 100 100 90 99
0 0 1 30 0 0 19 96 100 100 100 100 100 100 100 100 100 100 100 100 100 100
6 0 8 20 37 96 100 100 100 100 100 100 100 100 100 100 100 100 100 100 100 100
19 62 96 92 100 100 100 100 100 100 100 100 100 100 100 100 100 100 100 100 100 100
83 84 100 100 100 100 100 100 100 100 100 100 100 100 100 100 100 100 100 100 100 100
51 100 100 100 100 100 100 100 100 100 100 100 100 100 100 100 100 100 100 100 100 100
100 100 100 100 100 100 100 100 100 100 100 100 100 100 100 100 100 100 100 100 100 98

GFSNIL_prec_cloud_105.txt.gz
Cloud_Cover
100 100 100 100 100 100 100 100 100 100 100 100 100 100 100 100 100 100 100 100 100 100
100 100 100 100 100 100 100 100 100 100 100 100 100 100 100 100 100 100 100 100 100 100
100 100 100 100 100 100 100 100 100 100 100 100 100 100 100 100 100 100 100 100 100 100
100 100 100 100 100 100 100 100 100 100 100 100 100 100 100 100 100 100 100 100 100 100
100 100 100 100 100 100 100 100 100 100 100 100 100 100 100 100 100 100 100 100 100 100
34 99 100 100 100 100 100 100 100 100 100 100 100 100 100 100 100 100 100 100 100 100
100 0 73 100 100 100 100 100 100 100 100 100 100 100 100 100 100 100 100 100 100 100
79 0 0 14 89 100 100 100 100 100 100 100 100 100 100 100 100 100 100 100 100 100
0 0 1 0 0 10 88 100 100 100 100 100 100 100 100 100 100 100 100 100 100 100
36 4 2 2 7 22 99 100 100 100 100 100 100 100 100 100 100 100 100 100 100 100
15 5 11 88 100 100 100 100 100 100 100 100 100 100 100 100 100 100 100 100 100 100
5 23 50 100 100 100 100 100 100 100 100 100 100 100 100 100 100 100 100 100 100 100
100 100 100 100 100 100 100 100 100 100 100 100 100 100 100 100 100 100 100 100 100 100
100 100 100 100 100 100 100 100 100 100 100 100 100 100 100 100 100 100 100 100 100 100

GFSNIL_prec_cloud_108.txt.gz
Cloud_Cover
93 98 100 100 100 100 100 100 100 100 100 100 100 100 100 100 100 100 100 100 100 100
23 75 100 100 100 100 100 100 100 100 100 100 100 100 100 100 100 100 100 100 100 100
93 69 100 100 100 100 100 100 100 100 100 100 100 100 100 100 100 100 100 100 100 100
79 60 100 98 100 100 100 100 100 100 100 100 100 100 100 100 100 100 100 100 100 100
81 53 100 100 100 100 100 100 100 100 100 100 100 100 100 100 100 100 100 100 100 100
100 57 86 100 100 100 100 100 100 100 100 100 100 100 100 100 100 100 100 100 100 100
87 55 29 33 100 100 100 100 100 100 100 100 100 100 100 100 100 100 100 100 100 100
9 2 0 16 22 100 100 100 100 100 100 100 100 100 100 100 100 100 100 100 100 100
51 67 0 0 2 2 7 99 100 100 100 100 100 100 100 100 100 100 100 100 100 100
2 58 15 4 42 73 21 51 86 100 100 100 100 100 100 100 100 100 100 100 100 100
24 11 18 75 100 100 92 80 100 100 100 100 100 100 100 100 100 100 100 100 100 100
100 98 98 99 100 100 100 100 100 100 100 100 100 100 100 100 100 100 100 100 100 100
100 100 100 100 100 100 100 100 100 100 100 100 100 100 100 100 100 100 100 100 100 100
100 100 100 100 100 100 100 100 100 100 100 100 100 100 100 100 100 100 100 100 100 100

GFSNIL_prec_cloud_114.txt.gz
Cloud_Cover
28 60 100 100 100 100 100 100 100 100 100 100 100 100 100 100 100 100 100 100 100 100
42 88 91 86 64 99 100 100 100 100 100 100 100 100 100 100 100 100 100 100 100 100
100 100 100 90 45 83 100 100 100 100 100 100 100 100 100 100 100 100 100 100 100 100
100 100 100 82 48 100 100 100 100 100 100 100 100 100 100 100 100 100 100 100 100 100
100 100 100 97 99 100 100 100 100 100 100 100 100 100 100 100 100 100 100 100 100 100
100 100 100 100 99 100 100 100 100 100 100 100 100 100 100 100 100 100 100 100 100 100
100 100 100 100 99 100 99 100 100 100 100 100 100 100 100 100 100 100 100 100 100 100
100 100 100 100 100 100 100 100 100 100 100 100 100 100 100 100 100 100 100 100 100 100
100 100 100 100 100 100 100 100 100 100 100 100 100 100 100 100 100 100 100 100 100 100
100 100 100 100 100 100 100 100 100 100 100 100 100 100 100 100 100 100 100 100 100 100
100 100 100 100 100 100 100 100 100 100 100 100 100 100 100 100 100 100 100 100 100 100
94 100 100 100 100 100 100 100 100 100 100 100 100 100 100 100 100 100 100 100 100 100
100 100 100 100 100 100 100 100 100 100 100 100 100 100 100 100 100 100 100 100 100 100
100 100 100 100 100 100 100 100 100 100 100 100 100 100 100 100 100 100 100 100 100 100

GFSNIL_prec_cloud_117.txt.gz
Cloud_Cover
77 52 65 59 93 100 100 100 100 100 100 100 100 100 100 100 100 100 100 100 100 97
96 85 100 86 100 100 100 100 100 100 100 100 100 100 100 100 100 100 100 100 100 100
84 74 100 100 100 100 100 100 100 100 100 100 100 100 100 100 100 100 100 100 100 100
54 95 100 100 100 98 58 100 100 100 100 100 100 100 100 100 100 100 100 100 100 100
99 100 100 100 100 100 100 100 100 100 100 100 100 100 100 100 100 100 100 100 100 100
67 29 100 100 100 100 100 100 100 100 100 100 100 100 100 100 100 100 100 100 100 100
52 34 100 100 100 98 95 100 100 100 100 100 100 100 100 100 100 100 100 100 100 100
54 42 100 100 100 100 100 100 100 100 100 100 100 100 100 100 100 100 100 100 100 100
66 99 100 100 100 100 100 100 100 100 100 100 100 100 100 100 100 100 100 100 100 100
97 100 100 100 100 100 100 100 100 100 100 100 100 100 100 100 100 100 100 100 100 100
100 100 100 100 100 100 100 100 100 100 100 100 100 100 100 100 100 100 100 100 100 100
100 100 100 100 100 100 100 100 100 100 100 100 100 100 100 100 100 100 100 100 100 100
100 100 100 100 100 100 100 100 100 100 100 100 100 100 100 100 100 100 100 100 100 100
100 100 100 100 100 100 100 100 100 100 100 100 100 100 100 100 100 100 100 100 100 100

GFSNIL_prec_cloud_120.txt.gz
Cloud_Cover
73 100 68 92 100 89 100 100 100 100 100 100 100 100 100 100 100 100 100 100 100 100
100 100 100 81 100 100 90 100 100 100 100 100 100 100 100 100 100 100 100 100 100 100
100 97 87 79 77 83 75 100 100 100 100 100 100 100 100 100 100 100 100 100 100 100
100 100 96 60 84 93 72 98 100 100 100 100 100 100 100 100 100 100 100 100 100 100
100 100 100 80 100 100 100 67 100 100 100 100 100 100 100 100 100 100 100 100 100 100
100 100 92 100 83 100 85 88 99 100 100 100 100 100 100 100 100 100 100 100 100 100
100 100 100 100 67 100 100 100 100 100 100 100 100 100 100 100 100 100 100 100 100 100
100 100 100 100 47 85 68 93 100 100 99 100 100 100 100 100 100 100 100 100 100 100
100 100 100 90 58 100 100 100 100 100 100 100 100 100 100 100 100 100 100 100 100 100
100 100 100 92 92 100 100 100 100 100 100 100 100 100 100 100 100 100 100 100 100 100
100 100 100 100 100 100 100 100 100 100 100 100 100 100 100 100 100 100 100 100 100 100
100 100 100 100 100 100 100 100 100 100 100 100 100 100 100 100 100 100 100 100 100 100
100 100 100 100 100 100 100 100 100 100 100 100 100 100 100 100 100 100 100 100 100 100
100 100 100 100 100 100 100 100 100 100 100 100 100 100 100 100 100 100 100 100 100 100

GFSNIL_prec_cloud_123.txt.gz
Cloud_Cover
100 100 100 100 100 100 69 96 100 100 100 100 100 100 100 100 100 100 100 100 100 100
100 100 100 88 100 100 100 76 95 100 100 100 100 100 100 100 100 100 100 100 100 100
100 100 100 72 55 95 96 100 87 100 100 100 100 100 100 100 100 100 100 100 100 100
100 100 100 100 100 83 100 88 100 100 100 100 100 100 100 100 100 100 100 100 100 100
100 100 100 100 100 99 100 84 80 100 100 100 100 100 100 100 100 100 100 100 100 100
100 100 100 100 100 95 99 99 57 29 100 100 100 100 100 100 100 100 100 100 100 100
100 100 100 100 100 100 100 99 91 96 99 100 100 100 100 100 100 100 100 100 100 100
100 100 100 100 100 100 100 100 90 87 83 100 100 100 100 100 100 100 100 100 100 100
100 100 100 100 100 100 100 98 91 100 100 100 100 100 100 100 100 100 100 100 100 100
100 100 100 100 100 100 100 100 100 100 100 100 100 100 100 100 100 100 100 100 100 100
100 100 100 100 100 100 100 100 100 100 100 100 100 100 100 100 100 100 100 100 100 100
100 100 100 100 100 100 100 100 100 100 100 100 100 100 100 100 100 100 100 100 100 100
100 100 100 100 100 100 100 100 100 100 100 100 100 100 100 100 100 100 100 100 100 100
100 100 100 100 100 100 100 100 100 100 100 100 100 100 100 100 100 100 100 100 100 100

GFSNIL_prec_cloud_126.txt.gz
Cloud_Cover
96 100 100 100 100 95 90 73 100 98 100 100 99 100 100 100 100 100 100 100 100 100
100 100 100 100 100 100 84 58 82 100 100 100 100 100 100 100 100 100 100 100 100 100
92 100 100 100 100 99 100 100 87 84 100 90 94 100 100 100 100 100 100 100 100 100
98 100 100 100 100 100 73 25 99 40 100 100 100 100 100 100 100 100 100 100 100 100
100 100 100 100 100 100 100 75 100 83 100 100 100 100 100 100 100 100 100 100 100 100
100 100 100 100 100 100 100 100 100 97 100 100 94 100 100 100 100 100 100 100 100 100
100 100 100 100 100 100 100 99 100 73 99 100 100 100 100 100 100 100 100 100 100 100
100 100 100 100 100 100 100 100 100 100 100 100 100 100 100 100 100 100 100 100 100 100
100 100 100 100 100 100 100 100 100 100 96 94 98 100 100 100 100 100 100 100 100 100
100 100 100 100 100 100 100 100 100 100 100 100 100 100 100 100 100 100 100 100 100 100
94 100 100 100 100 100 100 100 100 100 100 100 100 100 100 100 100 100 100 100 100 100
100 100 100 100 100 100 100 100 100 100 100 100 100 100 100 100 100 100 100 100 100 100
100 100 100 100 100 100 100 100 100 100 100 100 100 100 100 100 100 100 100 100 100 100
98 100 100 100 100 100 100 100 100 100 100 100 100 100 100 100 100 100 100 100 100 100

GFSNIL_prec_cloud_129.txt.gz
Cloud_Cover
100 100 100 100 100 100 100 100 100 100 100 100 98 79 100 100 100 100 100 100 100 100
100 100 100 100 100 100 100 100 100 100 100 100 100 100 100 100 100 100 100 100 100 100
100 100 100 100 100 100 100 100 100 47 95 100 100 100 100 100 100 100 100 100 100 100
100 100 98 100 100 100 100 100 100 100 50 99 100 100 100 100 100 100 100 100 100 100
100 100 100 100 100 100 100 100 100 100 100 78 100 100 89 100 100 100 100 100 100 100
100 96 100 100 98 100 100 100 100 100 68 24 100 100 100 100 100 100 100 100 100 100
100 79 72 100 99 100 100 100 100 100 100 44 72 99 100 100 100 100 100 100 100 100
59 57 68 100 100 100 100 100 100 100 100 100 65 97 100 100 100 100 100 100 100 100
100 73 100 100 100 100 100 100 100 100 100 100 100 100 100 100 100 100 100 100 100 100
100 100 100 100 100 100 100 100 100 100 100 100 100 100 100 100 100 100 100 100 100 100
100 100 100 100 100 100 100 100 100 100 100 100 100 100 100 100 100 100 100 100 100 100
100 100 100 100 100 100 100 100 100 100 100 100 100 100 100 100 100 100 100 100 100 100
100 100 100 100 100 100 100 100 100 100 100 100 100 100 100 100 100 100 100 100 100 100
100 100 100 100 100 100 100 100 100 100 100 100 100 100 100 100 100 100 100 100 100 100

GFSNIL_prec_cloud_132.txt.gz
Cloud_Cover
100 100 100 100 100 100 99 100 100 88 100 100 100 100 100 100 100 100 83 66 100 51
100 89 100 100 100 100 95 100 100 100 100 100 100 100 100 100 100 100 100 100 100 100
100 100 100 100 100 96 99 86 100 100 100 100 100 100 100 100 100 100 100 100 100 100
100 100 100 99 72 90 96 100 100 100 100 100 100 100 100 100 100 100 100 100 100 100
100 100 100 100 59 91 100 100 100 100 100 100 96 100 100 100 100 100 100 100 100 100
100 88 92 100 43 100 100 100 100 100 100 100 100 97 87 100 100 100 100 100 100 100
100 100 100 84 79 98 100 100 100 92 100 100 100 19 82 100 100 97 100 100 100 100
100 100 100 100 100 96 58 100 100 100 100 100 100 99 59 100 100 100 100 100 100 100
100 100 100 100 100 92 100 100 100 100 100 100 100 100 100 100 100 100 100 100 100 100
100 100 98 73 54 92 78 100 100 100 100 100 100 100 100 100 100 100 100 100 100 100
100 100 100 87 100 100 87 100 100 100 100 100 100 100 100 100 100 100 100 100 100 100
100 100 100 100 100 100 100 100 100 100 100 100 100 100 100 100 100 100 100 100 100 100
100 100 100 100 100 100 100 100 100 100 100 100 100 100 100 100 100 100 100 100 100 100
100 100 100 100 100 100 100 100 100 100 100 100 100 100 100 100 100 100 100 100 100 100

GFSNIL_prec_cloud_135.txt.gz
Cloud_Cover
100 100 100 100 100 100 100 51 100 100 100 100 100 100 100 100 100 100 100 100 100 86
100 100 100 100 100 100 100 100 100 66 79 100 98 100 100 100 100 100 100 100 100 86
100 100 100 100 100 100 100 100 100 100 100 100 100 100 100 100 100 100 100 100 100 100
100 100 100 100 100 100 100 100 100 100 97 95 100 100 100 100 100 100 100 100 100 100
100 100 100 100 100 100 100 95 97 97 99 100 100 100 100 100 100 100 100 100 100 100
100 100 100 100 100 100 100 98 86 54 100 100 100 100 100 100 100 100 100 100 100 100
96 100 98 95 81 100 80 73 100 98 94 100 100 100 100 100 100 100 100 100 100 100
100 100 100 100 100 100 56 74 100 100 100 100 100 100 100 100 100 100 100 100 100 94
100 100 100 100 100 100 94 96 25 95 100 100 100 100 100 100 100 96 100 100 100 100
100 100 100 100 100 100 100 100 100 100 88 100 100 100 100 100 100 95 100 100 100 100
100 100 100 100 100 100 100 100 100 100 100 100 100 100 100 100 100 100 100 100 100 100
100 100 100 100 100 100 100 100 100 100 100 100 100 100 100 100 100 100 100 100 100 100
100 100 100 100 100 100 100 100 100 100 100 100 100 100 100 100 100 100 100 100 100 100
100 100 100 100 100 100 100 100 100 100 100 100 100 100 100 100 100 100 100 100 100 100